Location: Albany
(35.0000°S, 118.0000°E)
Time: 17:12:26
(UTC-04:00)

Transit 2A - Visible Passes

Search period start: 20 October 2014 00:00
Search period end: 30 October 2014 00:00
Orbit: 599 x 964 km, 66.7° (Epoch: 19 October)

Date Brightness Start Highest point End Pass type
(mag) Time Alt. Az. Time Alt. Az. Time Alt. Az.
21 Oct 9.0 12:15:15 10° S 12:15:21 11° S 12:15:21 11° S visible
22 Oct 8.9 11:42:10 10° S 11:42:24 11° S 11:42:24 11° S visible
23 Oct 8.9 11:09:23 10° SSE 11:09:28 10° SSE 11:09:28 10° SSE visible
25 Oct 8.9 11:43:55 10° SSW 11:44:13 12° SSW 11:44:13 12° SSW visible
26 Oct 8.7 11:10:36 10° S 11:11:23 14° S 11:11:23 14° S visible
27 Oct 8.5 10:37:27 10° S 10:38:34 15° S 10:38:34 15° S visible
28 Oct 8.4 10:04:33 10° S 10:05:47 13° SSE 10:05:47 13° SSE visible
29 Oct 8.4 09:32:22 10° SSE 09:33:01 11° SE 09:33:01 11° SE visible
29 Oct 8.6 11:12:50 10° SSW 11:13:32 14° SSW 11:13:32 14° SSW visible
